This is the latest recevied weather packets stored in our database for station/object K8RRT. If no packets are shown the sender has not sent any weather packets the latest 10 day(s).
| Time | Temp. | Humidity | Pressure | Rain* | Wind** | Luminosity | Snow |
|---|---|---|---|---|---|---|---|
| 1777270721 | 7.78° C | 99% | 1013.7 hPa | 0 mm | - | 0 W/m² | - |
| 1777270418 | 8.33° C | 99% | 1013.8 hPa | 0 mm | - | 0 W/m² | - |
| 1777270115 | 8.33° C | 99% | 1013.6 hPa | 0 mm | - | 0 W/m² | - |
| 1777269812 | 7.78° C | 99% | 1014.1 hPa | 0 mm | - | 0 W/m² | - |
| 1777269508 | 7.78° C | 99% | 1014.1 hPa | 0 mm | - | 0 W/m² | - |
| 1777269207 | 8.33° C | 99% | 1014.2 hPa | 0 mm | - | 0 W/m² | - |
| 1777268903 | 8.33° C | 99% | 1014.1 hPa | 0 mm | - | 0 W/m² | - |
| 1777268600 | 8.33° C | 99% | 1014.3 hPa | 0 mm | - | 0 W/m² | - |
| 1777268296 | 8.33° C | 99% | 1014.2 hPa | 0 mm | - | 0 W/m² | - |
| 1777267994 | 8.33° C | 99% | 1014.1 hPa | 0 mm | - | 0 W/m² | - |
| 1777267691 | 8.33° C | 99% | 1014.3 hPa | 0 mm | - | 0 W/m² | - |
| 1777267389 | 8.33° C | 99% | 1014.3 hPa | 0 mm | - | 0 W/m² | - |
| 1777267083 | 8.33° C | 99% | 1014.1 hPa | 0 mm | - | 0 W/m² | - |
| 1777266781 | 8.33° C | 99% | 1014.3 hPa | 0 mm | - | 0 W/m² | - |
| 1777266478 | 8.89° C | 99% | 1014.3 hPa | 0 mm | - | 0 W/m² | - |
| 1777266175 | 8.89° C | 99% | 1014.4 hPa | 0 mm | - | 0 W/m² | - |
| 1777265874 | 8.89° C | 99% | 1014.5 hPa | 0 mm | - | 0 W/m² | - |
| 1777265570 | 8.89° C | 99% | 1014.4 hPa | 0 mm | - | 0 W/m² | - |
| 1777265265 | 8.33° C | 99% | 1014.7 hPa | 0 mm | - | 0 W/m² | - |
| 1777264963 | 8.89° C | 99% | 1014.5 hPa | 0 mm | - | 0 W/m² | - |
| 1777264659 | 8.89° C | 99% | 1014.4 hPa | 0 mm | - | 0 W/m² | - |
| 1777264358 | 8.89° C | 99% | 1014.2 hPa | 0 mm | - | 0 W/m² | - |
| 1777264055 | 9.44° C | 99% | 1014.5 hPa | 0 mm | - | 0 W/m² | - |
| 1777263752 | 8.89° C | 99% | 1014.4 hPa | 0 mm | - | 0 W/m² | - |
| 1777263448 | 8.89° C | 99% | 1014.4 hPa | 0 mm | - | 0 W/m² | - |
* Rain latest hour (hover to see other rain measurements)
** Current wind speed in m/s (hover to see current wind gust speed)